Regional Weather Roundup
Issued by NWS

Home | Current Version | Previous Version | Text Only | Print | Product List | Glossary Off
Versions: 1 2 3 4 5 6 7 8 9 10 11 12 13 14 15 16 17 18 19 20 21 22 23 24 25 26 27 28 29 30 31 32 33 34 35 36 37 38 39 40 41 42 43 44 45 46 47 48 49

000
ASUS45 KCYS 020910
RWRWY

WYOMING REGIONAL WEATHER ROUNDUP
NATIONAL WEATHER SERVICE CHEYENNE WY
300 AM MDT SUN AUG 02 2015

NOTE:  "FAIR" INDICATES FEW OR NO CLOUDS BELOW 12,000 FEET
WITH NO SIGNIFICANT WEATHER AND/OR OBSTRUCTIONS TO VISIBILITY.

WYZ001-021000-
YELLOWSTONE NATIONAL PARK

CITY           SKY/WX    TMP DP  RH WIND       PRES   REMARKS
LK YELLOWSTONE   N/A     44  36  73 CALM      30.33S
W YELLOWSTONE  NOT AVBL

$$
WYZ002>013-054>058-071-098>099-021000-
NORTHERN WYOMING

CITY           SKY/WX    TMP DP  RH WIND       PRES   REMARKS
JACKSON        NOT AVBL
CODY           FAIR      72  32  23 W6        30.05S
GREYBULL       FAIR      65  38  36 CALM      29.97S
WORLAND        FAIR      62  23  22 S9        29.99F
SHERIDAN       FAIR      64  38  38 CALM      29.96F
BUFFALO        FAIR      72  28  19 W10       30.05F
GILLETTE       FAIR      65  35  33 S5        29.99F
HULETT         FAIR      68  46  45 S6        30.00F
NEWCASTLE      FAIR      61  50  67 CALM      30.01R

$$
WYZ014>020-022>026-101>103-021000-
CENTRAL WYOMING

CITY           SKY/WX    TMP DP  RH WIND       PRES   REMARKS
BIG PINEY      FAIR      53  31  42 SW5       30.24R
PINEDALE       FAIR      45  32  61 W7        30.24F
DUBOIS         FAIR      52  28  40 NW12      30.26S
LANDER         FAIR      62  33  33 SE3       30.10S
RIVERTON       FAIR      65  32  29 NW15      30.10F
CASPER         FAIR      54  30  40 NW6       30.08S
DOUGLAS        FAIR      62  53  72 CALM      30.06F

$$
WYZ021-027>030-104>119-021000-
SOUTHERN WYOMING

CITY           SKY/WX    TMP DP  RH WIND       PRES   REMARKS
EVANSTON       FAIR      61  29  29 SE6       30.23F
KEMMERER       FAIR      55  30  38 N13       30.24S
FORT BRIDGER   SUNNY     61  27  27 SW6       30.25S
ROCK SPRINGS   FAIR      64  25  22 N3        30.18S
DIXON          FAIR      56  37  48 CALM      30.21S
RAWLINS        FAIR      59  37  44 NE8       30.18S
SARATOGA       FAIR      54  32  43 W3        30.21S
LARAMIE        FAIR      54  47  77 W5        30.23S
CHEYENNE       FAIR      58  51  78 W10       30.14F
TORRINGTON     FAIR      61  54  77 E7        30.01F
PINE BLUFFS    FAIR      63  52  67 W6        30.09S

$$


USA.gov is the U.S. government's official web portal to all federal, state and local government web resources and services.